Weather History for Moses Lake, WA

Change the Weather History Date:

Monday, September 16, 2013

  Actual Average Record
Temperature  
Mean Temperature 69 °F 62 °F  
Max Temperature 79 °F 78 °F 91 °F (1998)
Min Temperature 58 °F 47 °F 39 °F (2006)
Degree Days  
Heating Degree Days 0 4  
Month to date heating degree days 8 38  
Since 1 July heating degree days 8 58  
Cooling Degree Days 4 1  
Month to date cooling degree days 135 37  
Year to date cooling degree days 948 607  
Growing Degree Days 18 (Base 50)    
Moisture  
Dew Point 54 °F    
Average Humidity 63    
Maximum Humidity 93    
Minimum Humidity 32    
Precipitation  
Precipitation 0.00 in 0.01 in 0.07 in (1997)
Month to date precipitation 0.78 0.13  
Year to date precipitation 5.09 5.56  
Sea Level Pressure  
Sea Level Pressure 29.80 in    
Wind  
Wind Speed 7 mph (SSW)    
Max Wind Speed 20 mph    
Max Gust Speed 25 mph    
Visibility 10 miles    
Events      
T = Trace of Precipitation, MM = Missing Value Source: NWS Daily Summary

Daily Weather History Graph

Daily Weather History Graph

Search for Another Location

Airport:

Trip Planner

Search our weather history database for the weather conditions in past years. The results will help you decide how hot, cold, wet, or windy it might be!

Date:

Astronomy

Sep. 16, 2013 Rise Set
Actual Time 6:36 AM PDT 7:06 PM PDT
Civil Twilight 6:05 AM PDT 7:37 PM PDT
Nautical Twilight 5:29 AM PDT 8:13 PM PDT
Astronomical Twilight 4:51 AM PDT 8:51 PM PDT
Moon 5:25 PM PDT (9/16) 3:18 AM PDT (9/16)
Length of Visible Light 13h 31m
Length of Day
12h 29m
Waxing Gibbous, 91% of the Moon is Illuminated
Sep 16
Waxing Gibbous
Sep 19
Full
Sep 26
Last Quarter
Oct 4
New
Oct 11
First Quarter

Hourly Weather History & Observations

Time (PDT) Temp. Dew Point Humidity Pressure Visibility Wind Dir Wind Speed Gust Speed Precip Events Conditions
12:52 AM 64.9 °F 60.1 °F 84% 29.74 in 10.0 mi South 8.1 mph - 0.00 in   Clear
1:52 AM 63.0 °F 60.1 °F 90% 29.76 in 10.0 mi SE 4.6 mph - N/A   Clear
2:52 AM 62.1 °F 59.0 °F 90% 29.76 in 10.0 mi South 3.5 mph - N/A   Clear
3:52 AM 62.1 °F 60.1 °F 93% 29.78 in 10.0 mi SSE 5.8 mph - N/A   Clear
4:52 AM 60.1 °F 57.9 °F 93% 29.76 in 9.0 mi SE 8.1 mph - N/A   Clear
5:52 AM 60.1 °F 57.0 °F 90% 29.77 in 10.0 mi SSE 5.8 mph - N/A   Clear
6:52 AM 59.0 °F 57.0 °F 93% 29.78 in 10.0 mi SE 6.9 mph - N/A   Scattered Clouds
7:52 AM 60.1 °F 57.0 °F 90% 29.80 in 10.0 mi ESE 3.5 mph - N/A   Overcast
8:52 AM 61.0 °F 57.9 °F 90% 29.82 in 10.0 mi Calm Calm - N/A   Overcast
9:52 AM 64.9 °F 60.1 °F 84% 29.84 in 10.0 mi SE 3.5 mph - N/A   Mostly Cloudy
10:52 AM 70.0 °F 60.1 °F 71% 29.84 in 10.0 mi SW 8.1 mph - N/A   Clear
11:52 AM 72.0 °F 57.9 °F 61% 29.84 in 10.0 mi SW 5.8 mph - N/A   Clear
12:52 PM 75.0 °F 55.9 °F 51% 29.83 in 10.0 mi SW 3.5 mph - N/A   Scattered Clouds
1:52 PM 77.0 °F 52.0 °F 42% 29.82 in 10.0 mi SW 12.7 mph 21.9 mph N/A   Clear
2:52 PM 78.1 °F 46.9 °F 33% 29.81 in 10.0 mi SW 12.7 mph 25.3 mph N/A   Clear
3:52 PM 78.1 °F 46.0 °F 32% 29.79 in 10.0 mi SW 15.0 mph - N/A   Clear
4:52 PM 78.1 °F 46.9 °F 33% 29.78 in 10.0 mi SW 16.1 mph 20.7 mph N/A   Clear
5:52 PM 75.9 °F 46.9 °F 36% 29.78 in 10.0 mi WSW 13.8 mph - N/A   Clear
6:52 PM 72.0 °F 48.0 °F 43% 29.78 in 10.0 mi SW 11.5 mph - N/A   Clear
7:52 PM 68.0 °F 51.1 °F 55% 29.80 in 10.0 mi SSW 9.2 mph - N/A   Clear
8:52 PM 66.0 °F 52.0 °F 60% 29.80 in 10.0 mi WSW 9.2 mph - N/A   Clear
9:52 PM 64.0 °F 51.1 °F 63% 29.80 in 10.0 mi Calm Calm - N/A   Clear
10:52 PM 62.1 °F 52.0 °F 70% 29.81 in 10.0 mi SSW 3.5 mph - N/A   Clear
11:52 PM 61.0 °F 50.0 °F 67% 29.81 in 10.0 mi WSW 5.8 mph - N/A   Clear